Location: Newark
(40.3500°N, 15.2333°E)
Time: 04:39:03
(UTC+00:00)

Vanguard 2 Rocket - Visible Passes

Search period start: 22 January 2020 00:00
Search period end: 01 February 2020 00:00
Orbit: 554 x 3326 km, 32.9° (Epoch: 21 January)

Date Brightness Start Highest point End Pass type
(mag) Time Alt. Az. Time Alt. Az. Time Alt. Az.
22 Jan 8.4 04:01:10 15° S 04:03:43 21° SSE 04:08:30 10° ESE visible
23 Jan 9.0 03:05:16 12° SE 03:05:16 12° SE 03:06:36 10° ESE visible
23 Jan 8.1 05:11:54 10° SW 05:16:37 39° SSE 05:24:04 10° E visible
24 Jan 8.0 04:15:08 19° SSW 04:17:27 29° SSE 04:22:57 10° E visible
25 Jan 8.5 03:19:09 18° SE 03:19:09 18° SE 03:22:01 10° ESE visible
25 Jan 7.9 05:25:54 10° WSW 05:30:35 43° S 05:38:05 10° ESE visible
26 Jan 7.7 04:28:57 21° SW 04:31:22 35° SSE 04:37:08 10° ESE visible
27 Jan 8.0 03:32:55 24° SSE 03:32:55 24° SSE 03:36:32 10° ESE visible
27 Jan 7.9 05:40:01 10° WSW 05:44:39 41° S 05:51:58 10° ESE visible
28 Jan 7.5 04:42:40 19° SW 04:45:23 37° S 04:51:11 10° ESE visible
29 Jan 7.5 03:46:35 30° SSE 03:46:35 30° SSE 03:50:47 10° ESE visible
30 Jan 9.1 02:50:29 11° ESE 02:50:29 11° ESE 02:50:44 10° ESE visible
30 Jan 7.6 04:56:18 15° WSW 04:59:28 35° S 05:05:05 10° ESE visible
31 Jan 7.2 04:00:12 33° S 04:00:18 33° S 04:04:51 10° ESE visible
